This is the latest recevied weather packets stored in our database for station/object K3SV. If no packets are shown the sender has not sent any weather packets the latest 10 day(s).
| Time | Temp. | Humidity | Pressure | Rain* | Wind** | Luminosity | Snow |
|---|---|---|---|---|---|---|---|
| 1778155477 | 22.22° C | 93% | 1015.6 hPa | 0 mm | - | 80 W/m² | - |
| 1778155174 | 21.67° C | 96% | 1015.7 hPa | 0 mm | - | 72 W/m² | - |
| 1778154870 | 21.11° C | 99% | 1015.6 hPa | 0 mm | - | 63 W/m² | - |
| 1778154566 | 21.11° C | 99% | 1015.7 hPa | 0 mm | - | 59 W/m² | - |
| 1778154263 | 21.11° C | 99% | 1015.8 hPa | 0 mm | - | 57 W/m² | - |
| 1778153960 | 21.11° C | 99% | 1015.7 hPa | 0 mm | - | 48 W/m² | - |
| 1778153657 | 21.11° C | 99% | 1015.5 hPa | 0 mm | - | 32 W/m² | - |
| 1778153354 | 21.11° C | 99% | 1015.5 hPa | 0 mm | - | 23 W/m² | - |
| 1778153047 | 21.11° C | 99% | 1015.4 hPa | 0 mm | - | 19 W/m² | - |
| 1778152744 | 21.11° C | 99% | 1015.4 hPa | 0 mm | - | 15 W/m² | - |
| 1778152441 | 21.11° C | 99% | 1015.4 hPa | 0 mm | - | 12 W/m² | - |
| 1778152137 | 21.11° C | 99% | 1015.2 hPa | 0 mm | - | 9 W/m² | - |
| 1778151833 | 21.11° C | 99% | 1015.2 hPa | 0 mm | - | 8 W/m² | - |
| 1778151530 | 21.11° C | 99% | 1015.2 hPa | 0 mm | - | 6 W/m² | - |
| 1778151227 | 21.11° C | 99% | 1015.2 hPa | 0 mm | - | 4 W/m² | - |
| 1778150923 | 21.11° C | 99% | 1015.3 hPa | 0 mm | - | 3 W/m² | - |
| 1778150620 | 21.11° C | 99% | 1015.1 hPa | 0 mm | - | 2 W/m² | - |
| 1778150316 | 21.11° C | 99% | 1015 hPa | 0 mm | - | 1 W/m² | - |
| 1778150013 | 20.56° C | 99% | 1015.1 hPa | 0 mm | - | 0 W/m² | - |
| 1778149709 | 20.56° C | 99% | 1015.2 hPa | 0 mm | - | 0 W/m² | - |
| 1778149406 | 20.56° C | 99% | 1015.1 hPa | 0 mm | - | 0 W/m² | - |
| 1778149102 | 20.56° C | 99% | 1015.1 hPa | 0 mm | - | 0 W/m² | - |
| 1778148802 | 20.56° C | 99% | 1015.2 hPa | 0 mm | - | 0 W/m² | - |
| 1778148499 | 21.11° C | 99% | 1015.3 hPa | 0 mm | - | 0 W/m² | - |
| 1778148197 | 21.11° C | 99% | 1015.2 hPa | 0 mm | - | 0 W/m² | - |
* Rain latest hour (hover to see other rain measurements)
** Current wind speed in m/s (hover to see current wind gust speed)